Terug naar catalogus

CZ-6A DEB

ActiefSSO
NORAD 56644·DEBRIS·🇨🇳 China

Gelanceerd Nov 11, 2022 vanaf Taiyuan Satellite Launch Center

Loading…

Volgende Passages (komende 24 uur)

TLE

VersSource: Space-Track

Epoch: Sep 14, 2026, 06:36 UTC

1 56644U 22151AFU 26257.27503363  .00000134  00000-0  97392-4 0  9999
2 56644  98.8377 257.5465 0040018  70.8836 289.6662 14.11308979175205

Volg CZ-6A DEB in realtime met AllMySat

Download on the App Store